SQP1123 UKOO-UKBB

Flight info

Callsign SQP1123
Flight time N/A
Altitude 26000
Route VAKOM L83 VAPEL/K0845F380 T219 TEPLO/K0841F370 T219 KONIP
Aircraft B737/M-SDE2E3FGHIRWXY/LB1

Departure

Time 2026-04-20 13:25
Airport Odesa International Airport (UKOO)

Arrival

Time N/A
Airport Boryspil International Airport (UKBB)
Time Latitude Longitude Altitude Speed Heading
2026-04-20 12:53 46.44152 30.67392 175 ft 0 kts 79°
2026-04-20 13:11 46.44152 30.67390 178 ft 3 kts 79°
2026-04-20 13:11 46.44147 30.67352 174 ft 4 kts 81°
2026-04-20 13:11 46.44145 30.67318 172 ft 2 kts 94°
2026-04-20 13:11 46.44147 30.67302 172 ft 2 kts 125°
2026-04-20 13:12 46.44155 30.67291 172 ft 2 kts 156°
2026-04-20 13:12 46.44166 30.67285 172 ft 2 kts 166°
2026-04-20 13:12 46.44177 30.67282 172 ft 2 kts 168°
2026-04-20 13:12 46.44179 30.67281 172 ft 0 kts 168°
2026-04-20 13:14 46.44165 30.67285 172 ft 4 kts 168°
2026-04-20 13:15 46.44127 30.67297 172 ft 7 kts 168°
2026-04-20 13:15 46.44078 30.67310 172 ft 7 kts 170°
2026-04-20 13:15 46.44029 30.67322 172 ft 7 kts 170°
2026-04-20 13:15 46.43974 30.67336 171 ft 9 kts 169°
2026-04-20 13:16 46.43919 30.67329 172 ft 8 kts 221°
2026-04-20 13:16 46.43895 30.67250 172 ft 9 kts 253°
2026-04-20 13:16 46.43875 30.67165 172 ft 9 kts 240°
2026-04-20 13:16 46.43818 30.67156 172 ft 9 kts 162°
2026-04-20 13:17 46.43759 30.67182 172 ft 9 kts 163°
2026-04-20 13:17 46.43696 30.67209 172 ft 10 kts 164°
2026-04-20 13:17 46.43627 30.67239 172 ft 11 kts 163°
2026-04-20 13:17 46.43549 30.67272 172 ft 12 kts 163°
2026-04-20 13:18 46.43466 30.67308 172 ft 13 kts 163°
2026-04-20 13:18 46.43378 30.67346 172 ft 13 kts 163°
2026-04-20 13:18 46.43293 30.67382 172 ft 13 kts 163°
2026-04-20 13:18 46.43204 30.67421 172 ft 14 kts 163°
2026-04-20 13:19 46.43107 30.67463 172 ft 15 kts 163°
2026-04-20 13:19 46.43006 30.67506 172 ft 15 kts 163°
2026-04-20 13:19 46.42908 30.67549 172 ft 14 kts 163°
2026-04-20 13:19 46.42814 30.67590 172 ft 14 kts 163°
2026-04-20 13:20 46.42722 30.67630 172 ft 14 kts 163°
2026-04-20 13:20 46.42625 30.67672 172 ft 15 kts 163°
2026-04-20 13:20 46.42525 30.67716 172 ft 15 kts 163°
2026-04-20 13:20 46.42424 30.67759 172 ft 15 kts 163°
2026-04-20 13:21 46.42328 30.67800 172 ft 14 kts 163°
2026-04-20 13:21 46.42236 30.67839 172 ft 14 kts 163°
2026-04-20 13:21 46.42146 30.67878 172 ft 14 kts 163°
2026-04-20 13:21 46.42048 30.67921 172 ft 16 kts 163°
2026-04-20 13:22 46.41938 30.67968 172 ft 17 kts 163°
2026-04-20 13:22 46.41821 30.68019 172 ft 17 kts 163°
2026-04-20 13:22 46.41707 30.68068 172 ft 17 kts 163°
2026-04-20 13:22 46.41598 30.68116 172 ft 16 kts 163°
2026-04-20 13:23 46.41513 30.68152 172 ft 7 kts 168°
2026-04-20 13:23 46.41475 30.68114 172 ft 7 kts 249°
2026-04-20 13:23 46.41460 30.68042 172 ft 8 kts 254°
2026-04-20 13:23 46.41443 30.67959 173 ft 9 kts 254°
2026-04-20 13:24 46.41445 30.67863 173 ft 10 kts 296°
2026-04-20 13:24 46.41493 30.67825 174 ft 7 kts 343°
2026-04-20 13:24 46.41538 30.67805 175 ft 8 kts 343°
2026-04-20 13:24 46.41825 30.67679 172 ft 83 kts 343°
2026-04-20 13:25 46.42614 30.67337 173 ft 150 kts 342°
2026-04-20 13:25 46.43748 30.66824 422 ft 183 kts 342°
2026-04-20 13:25 46.45015 30.66323 1169 ft 191 kts 344°
2026-04-20 13:25 46.46320 30.65925 2033 ft 191 kts 343°
2026-04-20 13:26 46.47578 30.65459 3018 ft 185 kts 338°
2026-04-20 13:26 46.48795 30.64891 3889 ft 183 kts 334°
2026-04-20 13:26 46.50016 30.64302 4655 ft 191 kts 335°
2026-04-20 13:26 46.51319 30.63666 5335 ft 202 kts 335°
2026-04-20 13:27 46.52676 30.63026 6137 ft 207 kts 336°
2026-04-20 13:27 46.54051 30.62402 6924 ft 207 kts 336°
2026-04-20 13:27 46.55431 30.61790 7629 ft 212 kts 339°
2026-04-20 13:27 46.56972 30.61722 8228 ft 233 kts
2026-04-20 13:28 46.58604 30.62185 8959 ft 243 kts
2026-04-20 13:28 46.60287 30.62543 9761 ft 245 kts 358°
2026-04-20 13:28 46.61983 30.62676 10522 ft 249 kts 356°
2026-04-20 13:28 46.63727 30.62799 11283 ft 257 kts 357°
2026-04-20 13:29 46.65598 30.62957 11649 ft 280 kts 358°
2026-04-20 13:29 46.67616 30.63171 12079 ft 298 kts 359°
2026-04-20 13:29 46.69695 30.63437 12468 ft 303 kts 360°
2026-04-20 13:29 46.71834 30.63741 12898 ft 317 kts
2026-04-20 13:30 46.74098 30.64080 13323 ft 336 kts
2026-04-20 13:30 46.76457 30.64452 13739 ft 345 kts
2026-04-20 13:30 46.78842 30.64846 14095 ft 345 kts
2026-04-20 13:30 46.81227 30.65249 14453 ft 345 kts
2026-04-20 13:31 46.83621 30.65656 14811 ft 346 kts
2026-04-20 13:31 46.86013 30.66064 15195 ft 346 kts
2026-04-20 13:31 46.88411 30.66473 15572 ft 347 kts
2026-04-20 13:31 46.90816 30.66883 15960 ft 348 kts
2026-04-20 13:32 46.93237 30.67295 16353 ft 354 kts
2026-04-20 13:32 46.95718 30.67714 16672 ft 367 kts
2026-04-20 13:32 46.98308 30.68150 17180 ft 380 kts
2026-04-20 13:32 47.00954 30.68601 17946 ft 385 kts
2026-04-20 13:33 47.02721 30.68905 18470 ft 386 kts
2026-04-20 13:33 47.06282 30.69519 19425 ft 390 kts
2026-04-20 13:33 47.08991 30.69985 20120 ft 394 kts
2026-04-20 13:33 47.11725 30.70455 20795 ft 398 kts
2026-04-20 13:34 47.14489 30.70930 21509 ft 401 kts
2026-04-20 13:34 47.17270 30.71409 22192 ft 405 kts
2026-04-20 13:34 47.19174 30.71737 22652 ft 407 kts
2026-04-20 13:34 47.21966 30.72217 23322 ft 411 kts
2026-04-20 13:35 47.24857 30.72716 23894 ft 415 kts
2026-04-20 13:35 47.27692 30.73206 24440 ft 418 kts
2026-04-20 13:35 47.30594 30.73708 24968 ft 421 kts 360°
2026-04-20 13:35 47.33516 30.74215 25469 ft 425 kts 360°
2026-04-20 13:36 47.36460 30.74726 25887 ft 428 kts 360°
2026-04-20 13:36 47.39429 30.75241 25889 ft 430 kts 360°
2026-04-20 13:36 47.42391 30.75759 25900 ft 426 kts 360°
2026-04-20 13:36 47.45331 30.76442 25909 ft 429 kts
2026-04-20 13:37 47.48256 30.77400 25924 ft 433 kts
2026-04-20 13:37 47.51181 30.78475 25920 ft 434 kts
2026-04-20 13:37 47.54111 30.79578 25912 ft 434 kts
2026-04-20 13:37 47.57040 30.80670 25930 ft 434 kts
2026-04-20 13:38 47.59969 30.81740 25929 ft 434 kts
2026-04-20 13:38 47.62907 30.82793 25913 ft 433 kts
2026-04-20 13:38 47.65842 30.83833 25920 ft 432 kts
2026-04-20 13:38 47.68763 30.84863 25918 ft 432 kts
2026-04-20 13:39 47.71684 30.85892 25927 ft 431 kts
2026-04-20 13:39 47.74612 30.86921 25951 ft 436 kts
2026-04-20 13:39 47.77608 30.87970 26058 ft 448 kts
2026-04-20 13:39 47.80670 30.89045 26190 ft 458 kts
2026-04-20 13:40 47.83761 30.90137 26388 ft 465 kts
2026-04-20 13:40 47.86919 30.91259 26702 ft 469 kts